Weather Roundup
Issued by NWS

Home | Current Version | Previous Version | Graphics & Text | Print | Product List | Glossary Off
Versions: 1 2 3 4 5 6 7 8 9 10 11 12 13 14 15 16 17 18 19 20 21 22 23 24 25 26 27 28 29 30 31 32 33 34 35 36 37 38 39 40 41 42 43 44 45 46 47 48 49 50

621
NZUS93 KARX 260310
HRRWXR

CURRENT HOURLY OBSERVATIONS ACROSS
MUCH OF THE UPPER MISSISSIPPI VALLEY
NATIONAL WEATHER SERVICE LA CROSSE WI
1000 PM CDT TUE APR 25 2017


...SOUTHEAST MINNESOTA...


CITY           SKY/WX    TMP DP  RH WIND       PRES   REMARKS
ROCHESTER      LGT RAIN  54  53  97 E7        29.52R
ROCHESTER/MAYO CLOUDY    55  55  98 NE3       29.53R
WINONA         LGT RAIN  55  52  88 CALM      29.53S
AUSTIN         DRIZZLE   54  52  94 N6        29.51R
ALBERT LEA     CLOUDY    48  48 100 N8        29.51S FOG
DODGE CENTER   DRIZZLE   54  52  94 N7        29.52S
PRESTON        LGT RAIN  55  50  86 NE10G17   29.51R
OWATONNA       CLOUDY    52  50  93 N6        29.52F FOG
FARIBAULT      LGT RAIN  52  52 100 N7        29.53F
$$

...ELSEWHERE IN MINNESOTA...


CITY           SKY/WX    TMP DP  RH WIND       PRES   REMARKS
MINNEAPOLIS    LGT RAIN  54  51  90 NE10      29.55F FOG
INTNL FALLS    CLOUDY    29  22  75 NE15G24   29.89S WCI  18
DULUTH         LGT RAIN  40  38  93 NE8       29.73R FOG     WCI  34
RED WING       CLOUDY    55  54  94 CALM      29.53F
REDWOOD FALLS  LGT RAIN  45  42  89 N9G18     29.59S
MANKATO        LGT RAIN  49  49 100 N9        29.53F FOG
WORTHINGTON    LGT RAIN  38  37  97 NW21G30   29.60S WCI  28
FAIRMONT       LGT RAIN  44  43  96 NW16      29.54F FOG
$$

...SOUTHWEST WISCONSIN...


CITY           SKY/WX    TMP DP  RH WIND       PRES   REMARKS
LA CROSSE      CLOUDY    60  52  74 N3        29.50F
PRAIRIE DU CHI CLOUDY    65  46  49 SE3       29.45F
BOSCOBEL       LGT RAIN  66  49  54 CALM      29.47F
LONE ROCK      CLOUDY    67  50  54 E9        29.48F
PLATTEVILLE    CLOUDY    67  48  49 E8        29.48F
FORT MC COY    CLOUDY    56  53  88 NE3       29.53F
CAMP DOUGLAS   CLOUDY    59  52  77 NE3       29.52F
MAUSTON-NEW LI MOCLDY    60  52  74 CALM      29.52F
VIROQUA        CLOUDY    59  49  69 NE7       29.50F
WIS DELLS      CLOUDY    65  48  53 E10       29.52S
$$

...ELSEWHERE IN WISCONSIN...


CITY           SKY/WX    TMP DP  RH WIND       PRES   REMARKS
MILWAUKEE      CLOUDY    58  50  75 SE7       29.60R
MADISON        CLOUDY    66  50  56 SE12      29.52S
GREEN BAY      CLOUDY    64  54  69 SE5       29.61S
EAU CLAIRE     CLOUDY    55  54  96 NE8       29.55S
BLACK RVR FLS  CLOUDY    55  55 100 NE8       29.53F
MEDFORD        LGT RAIN  53  51  95 N7        29.59S
WAUSAU         CLOUDY    57  52  83 CALM      29.59R
WIS RAPIDS     CLOUDY    61  50  67 NE8       29.57F
MARSHFIELD     CLOUDY    56  51  84 NE10      29.56F
RICE LAKE      LGT RAIN  51  49  93 N16       29.61F
$$

...NORTHEAST IOWA...


CITY           SKY/WX    TMP DP  RH WIND       PRES   REMARKS
WATERLOO       CLOUDY    62  52  69 E5        29.43S
DUBUQUE        CLOUDY    69  44  40 SE13      29.47F
DECORAH        CLOUDY    61  52  72 N5        29.46F
MASON CITY     LGT RAIN  51  50  96 N14       29.49F
CHARLES CITY   CLOUDY    57  55  94 N10       29.46F
OELWEIN        CLOUDY    63  52  67 E6        29.45F
$$

...ELSEWHERE IN IOWA...


CITY           SKY/WX    TMP DP  RH WIND       PRES   REMARKS
DES MOINES     LGT RAIN  53  49  86 NW16      29.48R
IOWA CITY      CLOUDY    68  50  52 S3        29.45S
FORT DODGE     CLOUDY    45  39  81 NW9       29.52S
MARSHALLTOWN   CLOUDY    62  54  74 CALM      29.43S
CEDAR RAPIDS   LGT RAIN  66  51  58 CALM      29.44R
$$

...NORTHERN ILLINOIS...


CITY           SKY/WX    TMP DP  RH WIND       PRES   REMARKS
CHICAGO-OHARE  CLOUDY    69  52  54 S9        29.57R
CHICAGO-MIDWAY CLOUDY    73  53  49 S6        29.58R
MOLINE         CLOUDY    70  49  47 SE9       29.46S
ROCKFORD       CLOUDY    69  50  50 SE10      29.55R
PEORIA         CLOUDY    72  49  44 S13       29.52S
$$

NOTE: "FAIR" INDICATES FEW OR NO CLOUDS BELOW 12,000 FEET WITH NO
SIGNIFICANT WEATHER AND/OR OBSTRUCTIONS TO VISIBILITY. WIND
SPEEDS ARE IN MILES-PER-HOUR.




USA.gov is the U.S. government's official web portal to all federal, state and local government web resources and services.